Location: Tel Aviv
(32.0670°N, 34.7670°E)
Time: 21:09:58
(UTC+03:00)

CAS-4A - Visible Passes

Search period start: 13 April 2024 00:00
Search period end: 23 April 2024 00:00
Orbit: 480 x 498 km, 43.0° (Epoch: 12 April)

Date Brightness Start Highest point End Pass type
(mag) Time Alt. Az. Time Alt. Az. Time Alt. Az.
13 Apr ? 03:56:02 12° ESE 03:56:02 12° ESE 03:57:00 10° ESE visible
13 Apr ? 05:30:25 13° WSW 05:33:46 84° NNW 05:37:38 10° ENE visible
14 Apr ? 05:05:59 27° WSW 05:07:59 83° NNW 05:11:51 10° ENE visible
15 Apr ? 04:41:26 56° WSW 04:42:10 83° NNW 04:46:01 10° ENE visible
16 Apr ? 04:16:47 67° NE 04:16:47 67° NE 04:20:09 10° ENE visible
17 Apr ? 03:52:02 33° NE 03:52:02 33° NE 03:54:15 10° ENE visible
17 Apr ? 05:26:51 10° WNW 05:29:53 22° NNW 05:32:56 10° NE visible
18 Apr ? 03:27:12 18° NE 03:27:12 18° NE 03:28:20 10° ENE visible
18 Apr ? 05:01:32 13° WNW 05:03:57 22° NNW 05:06:59 10° NE visible
19 Apr ? 03:02:18 10° ENE 03:02:18 10° ENE 03:02:22 10° ENE visible
19 Apr ? 04:36:38 18° NW 04:38:00 22° NNW 04:41:01 10° NE visible
20 Apr ? 04:11:40 21° NNW 04:12:00 22° NNW 04:15:01 10° NE visible
21 Apr ? 03:46:39 21° N 03:46:39 21° N 03:48:59 10° NE visible
21 Apr ? 05:23:35 10° NW 05:25:58 16° N 05:28:23 10° NE visible
22 Apr ? 03:21:37 16° NNE 03:21:37 16° NNE 03:22:55 10° NE visible
22 Apr ? 04:57:31 10° NW 04:59:54 16° N 05:02:18 10° NE visible
